When you browse on this site, cookies collect data to enhance your experience and personalize the content and advertising you see.
Visit our Privacy Policy to learn more. By continuing to use the site, you agree to this use of cookies and data.
  • In Hungary
  • List of Countries
  • For 7 days
  • Water Temperature
  • Satellite Maps
  • Weather Map
  • News
  • Weather Widgets
  • user-avatar
    Login

    Hourly Weather Smolarnik

    Today, 16 December, Sunday

    Time Temperature Precipitation Wind Pressure Humidity
    00:00 -4°C° 0 mm 3 mps 753 mmHg 85%
    01:00 -3°C° 0 mm 2 mps 753 mmHg 89%
    02:00 -3°C° 0 mm 2 mps 752 mmHg 89%
    03:00 -3°C° 0 mm 2 mps 752 mmHg 89%
    04:00 -3°C° 0 mm 2 mps 752 mmHg 88%
    05:00 -3°C° 0 mm 2 mps 751 mmHg 89%
    06:00 -2°C° 0 mm 1 mps 751 mmHg 90%
    07:00 -2°C° 0 mm 1 mps 750 mmHg 91%
    08:00 -2°C° 0 mm 1 mps 750 mmHg 88%
    09:00 -1°C° 0 mm 1 mps 750 mmHg 85%
    10:00 -1°C° 0 mm 1 mps 751 mmHg 82%
    11:00 0°C° 0 mm 1 mps 750 mmHg 79%
    12:00 -2°C° 0 mm 2 mps 750 mmHg 75%
    13:00 -2°C° 0 mm 2 mps 750 mmHg 72%
    14:00 -2°C° 0 mm 2 mps 750 mmHg 75%
    15:00 -3°C° 0 mm 2 mps 750 mmHg 79%
    16:00 -3°C° 0 mm 2 mps 750 mmHg 82%
    17:00 -4°C° 0 mm 2 mps 750 mmHg 82%
    18:00 -4°C° 0 mm 2 mps 750 mmHg 82%
    19:00 -5°C° 0 mm 3 mps 750 mmHg 83%
    20:00 -5°C° 0 mm 3 mps 750 mmHg 82%
    21:00 -5°C° 0 mm 3 mps 750 mmHg 82%
    22:00 -5°C° 0 mm 3 mps 750 mmHg 81%
    23:00 -5°C° 0 mm 3 mps 750 mmHg 80%

    Tomorrow, 17 December, Monday

    Time Temperature Precipitation Wind Pressure Humidity
    00:00 -5°C° 0 mm 3 mps 750 mmHg 80%
    01:00 -4°C° 0 mm 3 mps 750 mmHg 79%
    02:00 -3°C° 0 mm 2 mps 750 mmHg 80%
    03:00 -3°C° 0 mm 2 mps 750 mmHg 81%
    04:00 -3°C° 0 mm 2 mps 750 mmHg 82%
    05:00 -3°C° 0 mm 2 mps 751 mmHg 83%
    06:00 -4°C° 0 mm 2 mps 751 mmHg 84%
    07:00 -4°C° 0 mm 2 mps 751 mmHg 85%
    08:00 -3°C° 0 mm 2 mps 751 mmHg 84%
    09:00 -2°C° 0 mm 2 mps 752 mmHg 82%
    10:00 -2°C° 0 mm 2 mps 752 mmHg 81%
    11:00 +1°C° 0 mm 1 mps 752 mmHg 81%
    12:00 +2°C° 0 mm 1 mps 752 mmHg 80%
    13:00 +2°C° 0 mm 1 mps 753 mmHg 80%
    14:00 +2°C° 0 mm 1 mps 753 mmHg 83%
    15:00 +2°C° 0 mm 1 mps 753 mmHg 85%
    16:00 +1°C° 0 mm 1 mps 754 mmHg 87%
    17:00 +1°C° 0 mm 1 mps 754 mmHg 89%
    18:00 +1°C° 0 mm 1 mps 755 mmHg 90%
    19:00 +1°C° 0 mm 1 mps 755 mmHg 91%
    20:00 +1°C° 0 mm 1 mps 756 mmHg 91%
    21:00 +1°C° 0 mm 1 mps 756 mmHg 91%
    22:00 +1°C° 0 mm 1 mps 756 mmHg 91%
    23:00 +1°C° 0 mm 1 mps 756 mmHg 91%

    Day after tomorrow, 18 December, Tuesday

    Time Temperature Precipitation Wind Pressure Humidity
    00:00 +1°C° 0 mm 1 mps 757 mmHg 91%
    01:00 +1°C° 0 mm 1 mps 757 mmHg 91%
    02:00 +1°C° 0 mm 1 mps 757 mmHg 91%
    03:00 +1°C° 0 mm 1 mps 757 mmHg 91%
    04:00 0°C° 0 mm 1 mps 757 mmHg 91%
    05:00 -1°C° 0 mm 2 mps 757 mmHg 90%
    06:00 -1°C° 0 mm 2 mps 757 mmHg 90%
    07:00 -1°C° 0 mm 2 mps 757 mmHg 90%
    08:00 -1°C° 0 mm 2 mps 757 mmHg 88%
    09:00 -1°C° 0 mm 2 mps 757 mmHg 86%
    10:00 +1°C° 0 mm 2 mps 757 mmHg 85%
    11:00 +1°C° 0 mm 2 mps 757 mmHg 84%
    12:00 +3°C° 0 mm 1 mps 756 mmHg 84%
    13:00 +3°C° 0 mm 1 mps 756 mmHg 83%
    14:00 +3°C° 0 mm 1 mps 756 mmHg 85%
    15:00 +2°C° 0 mm 1 mps 756 mmHg 87%
    16:00 +2°C° 0 mm 1 mps 756 mmHg 89%
    17:00 +2°C° 0 mm 1 mps 756 mmHg 89%
    18:00 +2°C° 0 mm 1 mps 756 mmHg 89%
    19:00 +1°C° 0 mm 1 mps 756 mmHg 90%
    20:00 +1°C° 0 mm 1 mps 756 mmHg 90%
    21:00 -1°C° 0 mm 2 mps 756 mmHg 90%
    22:00 -1°C° 0 mm 2 mps 756 mmHg 90%
    23:00 -1°C° 0 mm 2 mps 755 mmHg 90%

    19 December, Wednesday

    Time Temperature Precipitation Wind Pressure Humidity
    00:00 -2°C° 0 mm 2 mps 755 mmHg 90%
    01:00 -2°C° 0 mm 2 mps 755 mmHg 91%
    02:00 -2°C° 0 mm 2 mps 755 mmHg 90%
    03:00 -2°C° 0 mm 3 mps 755 mmHg 90%
    04:00 -2°C° 0 mm 3 mps 754 mmHg 90%
    05:00 -2°C° 0 mm 3 mps 754 mmHg 90%
    06:00 -2°C° 0 mm 3 mps 754 mmHg 90%
    07:00 -2°C° 0 mm 3 mps 754 mmHg 89%
    08:00 -2°C° 0 mm 3 mps 754 mmHg 87%
    09:00 -1°C° 0 mm 3 mps 754 mmHg 85%
    10:00 -1°C° 0 mm 4 mps 754 mmHg 82%
    11:00 -1°C° 0 mm 4 mps 753 mmHg 81%
    12:00 0°C° 0 mm 4 mps 753 mmHg 79%
    13:00 0°C° 0 mm 4 mps 753 mmHg 78%
    14:00 0°C° 0 mm 4 mps 753 mmHg 80%
    15:00 -1°C° 0 mm 4 mps 753 mmHg 82%
    16:00 -2°C° 0 mm 4 mps 752 mmHg 84%
    17:00 -2°C° 0 mm 4 mps 752 mmHg 83%
    18:00 -2°C° 0 mm 4 mps 752 mmHg 83%
    19:00 -2°C° 0 mm 4 mps 752 mmHg 83%
    20:00 -2°C° 0 mm 4 mps 752 mmHg 81%
    21:00 -2°C° 0 mm 4 mps 752 mmHg 80%
    22:00 -2°C° 0 mm 4 mps 752 mmHg 79%
    23:00 -2°C° 0 mm 4 mps 752 mmHg 78%

    20 December, Thursday

    Time Temperature Precipitation Wind Pressure Humidity
    00:00 -1°C° 0 mm 3 mps 752 mmHg 78%
    01:00 -1°C° 0 mm 3 mps 752 mmHg 77%
    02:00 -1°C° 0 mm 3 mps 752 mmHg 77%
    03:00 -1°C° 0 mm 3 mps 752 mmHg 77%
    04:00 -1°C° 0 mm 3 mps 751 mmHg 77%
    05:00 -1°C° 0 mm 3 mps 751 mmHg 77%
    06:00 -1°C° 0 mm 3 mps 751 mmHg 77%
    07:00 -1°C° 0 mm 3 mps 752 mmHg 77%
    08:00 -1°C° 0 mm 3 mps 752 mmHg 76%
    09:00 -1°C° 0 mm 3 mps 752 mmHg 75%
    10:00 -1°C° 0 mm 3 mps 752 mmHg 74%
    11:00 0°C° 0 mm 3 mps 752 mmHg 74%
    12:00 0°C° 0 mm 3 mps 752 mmHg 73%
    13:00 0°C° 0 mm 3 mps 751 mmHg 73%
    14:00 +1°C° 0 mm 2 mps 751 mmHg 75%
    15:00 -1°C° 0 mm 2 mps 752 mmHg 78%
    16:00 -1°C° 0 mm 2 mps 752 mmHg 80%
    17:00 -1°C° 0.1 mm 2 mps 752 mmHg 82%
    18:00 -1°C° 0.1 mm 2 mps 752 mmHg 85%
    19:00 -1°C° 0.1 mm 2 mps 752 mmHg 87%
    20:00 -1°C° 0.1 mm 2 mps 752 mmHg 88%
    21:00 -1°C° 0.1 mm 2 mps 753 mmHg 89%
    22:00 -1°C° 0.1 mm 2 mps 753 mmHg 90%
    23:00 -1°C° 0.1 mm 2 mps 753 mmHg 90%

    21 December, Friday

    Time Temperature Precipitation Wind Pressure Humidity
    00:00 -1°C° 0.1 mm 2 mps 753 mmHg 90%
    01:00 -1°C° 0.1 mm 2 mps 753 mmHg 90%
    02:00 -1°C° 0 mm 2 mps 753 mmHg 90%
    03:00 -1°C° 0 mm 3 mps 752 mmHg 90%
    04:00 -1°C° 0 mm 3 mps 752 mmHg 90%
    05:00 -1°C° 0 mm 3 mps 752 mmHg 90%
    06:00 -1°C° 0 mm 3 mps 752 mmHg 90%
    07:00 -1°C° 0 mm 3 mps 752 mmHg 89%
    08:00 0°C° 0 mm 3 mps 752 mmHg 88%
    09:00 0°C° 0 mm 3 mps 752 mmHg 87%
    10:00 0°C° 0 mm 3 mps 752 mmHg 86%
    11:00 0°C° 0 mm 4 mps 751 mmHg 85%
    12:00 0°C° 0 mm 4 mps 750 mmHg 84%
    13:00 +1°C° 0 mm 4 mps 750 mmHg 83%
    14:00 +1°C° 0.1 mm 4 mps 749 mmHg 83%
    15:00 0°C° 0.1 mm 5 mps 749 mmHg 83%
    16:00 0°C° 0.1 mm 5 mps 748 mmHg 83%
    17:00 0°C° 0.1 mm 5 mps 747 mmHg 82%
    18:00 0°C° 0.1 mm 5 mps 747 mmHg 82%
    19:00 +1°C° 0.1 mm 5 mps 746 mmHg 81%
    20:00 +1°C° 0.9 mm 6 mps 745 mmHg 81%
    21:00 +1°C° 0.9 mm 6 mps 745 mmHg 82%
    22:00 +1°C° 0.9 mm 6 mps 745 mmHg 83%
    23:00 0°C° 0.7 mm 7 mps 744 mmHg 83%
    Show more